Weather History for KAQP - May, 2009

Change the Weather History Date:

Tuesday, May 5, 2009

  Actual Average Record
Temperature  
Mean Temperature 58 °F -  
Max Temperature 71 °F 63 °F 91 °F (2000)
Min Temperature 46 °F 39 °F 6 °F (1999)
Degree Days  
Heating Degree Days 6    
Growing Degree Days 8 (Base 50)    
Moisture  
Dew Point 46 °F    
Average Humidity 70    
Maximum Humidity 100    
Minimum Humidity 33    
Precipitation  
Precipitation 0.00 in - - ()
Sea Level Pressure  
Sea Level Pressure 29.70 in    
Wind  
Wind Speed 13 mph (SW)    
Max Wind Speed 28 mph    
Max Gust Speed 36 mph    
Visibility 10 miles    
Events Rain    
Averages and records for this station are not official NWS values.
T = Trace of Precipitation, MM = Missing Value Source: NWS Daily Summary

Daily Weather History Graph

Daily Weather History Graph

Search for Another Location

Airport or City:

Trip Planner

Search our weather history database for the weather conditions in past years. The results will help you decide how hot, cold, wet, or windy it might be!

Date:

Astronomy

May. 05, 2009 Rise Set
Actual Time 6:06 AM CDT 8:35 PM CDT
Civil Twilight 5:33 AM CDT 9:08 PM CDT
Nautical Twilight 4:52 AM CDT 9:50 PM CDT
Astronomical Twilight 4:05 AM CDT 10:37 PM CDT
Moon 5:14 PM CDT (5/5) 4:06 AM CDT (5/5)
Length of Visible Light 15h 35m
Length of Day
14h 28m
Waxing Gibbous, 88% of the Moon is Illuminated
May 5
Waxing Gibbous
May 8
Full
May 17
Last Quarter
May 24
New
May 30
First Quarter

Hourly Weather History & Observations

Time (CDT) Temp. Windchill Dew Point Humidity Pressure Visibility Wind Dir Wind Speed Gust Speed Precip Events Conditions
12:13 AM 51.8 °F - 50.0 °F 94% 29.80 in 10.0 mi South 8.1 mph - N/A Rain Light Rain
12:33 AM 50.0 °F - 50.0 °F 100% 29.80 in 10.0 mi South 9.2 mph - N/A   Scattered Clouds
12:53 AM 50.0 °F - 50.0 °F 100% 29.80 in 10.0 mi South 5.8 mph - N/A   Scattered Clouds
1:13 AM 50.0 °F - 50.0 °F 100% 29.78 in 10.0 mi SSE 4.6 mph - N/A   Mostly Cloudy
1:33 AM 50.0 °F - 48.2 °F 94% 29.79 in 10.0 mi South 6.9 mph - N/A   Scattered Clouds
1:54 AM 50.0 °F - 48.2 °F 94% 29.76 in 10.0 mi SSE 3.5 mph - N/A Rain Light Rain
2:13 AM 50.0 °F - 48.2 °F 94% 29.75 in 10.0 mi South 10.4 mph - N/A   Scattered Clouds
2:33 AM 50.0 °F - 48.2 °F 94% 29.75 in 10.0 mi South 8.1 mph - N/A   Scattered Clouds
2:54 AM 50.0 °F - 48.2 °F 94% 29.75 in 10.0 mi South 11.5 mph - N/A   Clear
3:14 AM 48.2 °F - 48.2 °F 100% 29.75 in 10.0 mi South 10.4 mph - N/A   Clear
3:33 AM 48.2 °F - 48.2 °F 100% 29.75 in 10.0 mi South 13.8 mph - N/A   Clear
3:54 AM 48.2 °F - 48.2 °F 100% 29.75 in 10.0 mi South 12.7 mph - N/A   Clear
4:14 AM 48.2 °F - 48.2 °F 100% 29.75 in 10.0 mi South 11.5 mph 19.6 mph N/A   Clear
4:34 AM 48.2 °F - 48.2 °F 100% 29.75 in 10.0 mi South 13.8 mph - N/A   Clear
4:53 AM 48.2 °F - 48.2 °F 100% 29.75 in 10.0 mi South 12.7 mph - N/A   Clear
5:14 AM 46.4 °F 40.4 °F 46.4 °F 100% 29.74 in 10.0 mi South 13.8 mph 19.6 mph N/A   Clear
5:33 AM 46.4 °F 40.4 °F 46.4 °F 100% 29.73 in 10.0 mi South 13.8 mph 20.7 mph N/A   Clear
5:54 AM 48.2 °F - 48.2 °F 100% 29.73 in 10.0 mi South 13.8 mph 19.6 mph N/A   Clear
6:13 AM 48.2 °F - 48.2 °F 100% 29.71 in 10.0 mi South 12.7 mph 19.6 mph N/A   Mostly Cloudy
6:34 AM 48.2 °F - 48.2 °F 100% 29.72 in 10.0 mi South 11.5 mph - N/A   Overcast
6:53 AM 48.2 °F - 48.2 °F 100% 29.71 in 10.0 mi South 13.8 mph 18.4 mph N/A   Overcast
7:13 AM 48.2 °F - 48.2 °F 100% 29.71 in 10.0 mi South 12.7 mph 19.6 mph N/A   Overcast
7:34 AM 48.2 °F - 48.2 °F 100% 29.72 in 10.0 mi South 12.7 mph - N/A   Overcast
7:53 AM 50.0 °F - 50.0 °F 100% 29.72 in 10.0 mi South 12.7 mph - N/A   Overcast
8:14 AM 50.0 °F - 50.0 °F 100% 29.72 in 10.0 mi South 11.5 mph - N/A   Overcast
8:33 AM 51.8 °F - 51.8 °F 100% 29.72 in 10.0 mi SSW 12.7 mph - N/A   Overcast
8:54 AM 53.6 °F - 51.8 °F 94% 29.71 in 10.0 mi SSW 15.0 mph 19.6 mph N/A   Scattered Clouds
9:14 AM 55.4 °F - 51.8 °F 88% 29.70 in 10.0 mi SSW 11.5 mph 17.3 mph N/A   Mostly Cloudy
9:33 AM 57.2 °F - 50.0 °F 77% 29.70 in 10.0 mi SW 16.1 mph - N/A   Mostly Cloudy
9:54 AM 60.8 °F - 48.2 °F 63% 29.70 in 10.0 mi WSW 17.3 mph 26.5 mph N/A   Scattered Clouds
10:14 AM 60.8 °F - 46.4 °F 59% 29.70 in 10.0 mi WSW 19.6 mph - N/A   Scattered Clouds
10:34 AM 62.6 °F - 46.4 °F 55% 29.70 in 10.0 mi WSW 24.2 mph 29.9 mph N/A   Scattered Clouds
10:54 AM 62.6 °F - 46.4 °F 55% 29.70 in 10.0 mi WSW 26.5 mph 32.2 mph N/A   Clear
11:14 AM 64.4 °F - 46.4 °F 52% 29.69 in 10.0 mi WSW 25.3 mph 31.1 mph N/A   Clear
11:33 AM 66.2 °F - 46.4 °F 49% 29.69 in 10.0 mi WSW 23.0 mph 34.5 mph N/A   Clear
11:54 AM 66.2 °F - 44.6 °F 46% 29.69 in 10.0 mi WSW 27.6 mph 34.5 mph N/A   Clear
12:13 PM 66.2 °F - 42.8 °F 43% 29.68 in 10.0 mi SW 26.5 mph 33.4 mph N/A   Clear
12:33 PM 66.2 °F - 42.8 °F 43% 29.68 in 10.0 mi WSW 24.2 mph 34.5 mph N/A   Clear
12:54 PM 66.2 °F - 42.8 °F 43% 29.68 in 10.0 mi WSW 21.9 mph 35.7 mph N/A   Clear
1:14 PM 68.0 °F - 42.8 °F 40% 29.68 in 10.0 mi WSW 24.2 mph 31.1 mph N/A   Scattered Clouds
1:33 PM 66.2 °F - 42.8 °F 43% 29.67 in 10.0 mi WSW 24.2 mph 34.5 mph N/A   Mostly Cloudy
1:53 PM 66.2 °F - 42.8 °F 43% 29.67 in 10.0 mi WSW 24.2 mph 31.1 mph N/A   Mostly Cloudy
2:13 PM 69.8 °F - 44.6 °F 40% 29.66 in 10.0 mi SW 19.6 mph 32.2 mph N/A   Scattered Clouds
2:33 PM 69.8 °F - 44.6 °F 40% 29.66 in 10.0 mi WSW 21.9 mph 27.6 mph N/A   Mostly Cloudy
2:54 PM 69.8 °F - 42.8 °F 38% 29.66 in 10.0 mi WSW 24.2 mph 27.6 mph N/A   Scattered Clouds
3:13 PM 71.6 °F - 42.8 °F 35% 29.65 in 10.0 mi West 20.7 mph 25.3 mph N/A   Mostly Cloudy
3:34 PM 69.8 °F - 42.8 °F 38% 29.64 in 10.0 mi SW 19.6 mph 25.3 mph N/A   Mostly Cloudy
3:53 PM 71.6 °F - 41.0 °F 33% 29.64 in 10.0 mi West 18.4 mph 25.3 mph N/A   Mostly Cloudy
4:13 PM 69.8 °F - 41.0 °F 35% 29.64 in 10.0 mi WSW 19.6 mph 23.0 mph N/A   Mostly Cloudy
4:34 PM 69.8 °F - 39.2 °F 33% 29.63 in 10.0 mi WSW 18.4 mph - N/A   Overcast
4:53 PM 69.8 °F - 41.0 °F 35% 29.63 in 10.0 mi West 17.3 mph 21.9 mph N/A   Overcast
5:13 PM 69.8 °F - 41.0 °F 35% 29.63 in 10.0 mi West 15.0 mph - N/A   Overcast
5:34 PM 69.8 °F - 42.8 °F 38% 29.63 in 10.0 mi West 15.0 mph - N/A   Overcast
5:53 PM 69.8 °F - 42.8 °F 38% 29.63 in 10.0 mi West 12.7 mph 20.7 mph N/A   Mostly Cloudy
6:14 PM 69.8 °F - 42.8 °F 38% 29.63 in 10.0 mi West 13.8 mph 18.4 mph N/A   Overcast
6:33 PM 69.8 °F - 42.8 °F 38% 29.63 in 10.0 mi West 15.0 mph - N/A   Overcast
6:53 PM 69.8 °F - 42.8 °F 38% 29.62 in 10.0 mi WNW 16.1 mph 20.7 mph N/A   Mostly Cloudy
7:14 PM 68.0 °F - 42.8 °F 40% 29.62 in 10.0 mi West 10.4 mph 17.3 mph N/A   Scattered Clouds
7:33 PM 66.2 °F - 42.8 °F 43% 29.62 in 10.0 mi West 8.1 mph - N/A   Clear
7:54 PM 64.4 °F - 44.6 °F 49% 29.62 in 10.0 mi West 8.1 mph - N/A   Clear
8:14 PM 60.8 °F - 44.6 °F 55% 29.63 in 10.0 mi West 4.6 mph - N/A   Clear
8:33 PM 59.0 °F - 44.6 °F 59% 29.63 in 10.0 mi WSW 4.6 mph - N/A   Clear
8:54 PM 57.2 °F - 44.6 °F 63% 29.63 in 10.0 mi West 3.5 mph - N/A   Clear
9:13 PM 59.0 °F - 44.6 °F 59% 29.64 in 10.0 mi Calm Calm - N/A   Clear
9:34 PM 57.2 °F - 46.4 °F 67% 29.64 in 10.0 mi Calm Calm - N/A   Clear
9:54 PM 57.2 °F - 46.4 °F 67% 29.65 in 10.0 mi SSW 4.6 mph - N/A   Clear
10:13 PM 53.6 °F - 50.0 °F 88% 29.65 in 10.0 mi SSW 4.6 mph - N/A   Clear
10:34 PM 55.4 °F - 50.0 °F 82% 29.65 in 10.0 mi SSW 4.6 mph - N/A   Clear
10:54 PM 53.6 °F - 48.2 °F 82% 29.66 in 10.0 mi SW 4.6 mph - N/A   Clear
11:13 PM 51.8 °F - 44.6 °F 76% 29.65 in 10.0 mi WSW 4.6 mph - N/A   Clear
11:34 PM 50.0 °F - 42.8 °F 76% 29.65 in 10.0 mi SW 3.5 mph - N/A   Clear
11:53 PM 48.2 °F - 46.4 °F 93% 29.65 in 10.0 mi Calm Calm - N/A   Clear